TimePST,TemperatureF,Dew PointF,Humidity,Sea Level PressureIn,VisibilityMPH,Wind Direction,Wind SpeedMPH,Gust SpeedMPH,PrecipitationIn,Events,Conditions,WindDirDegrees,DateUTC
12:53 AM,46.0,34.0,63,30.18,10.0,Calm,Calm,-,N/A,,Clear,0,2013-12-31 08:53:00
1:53 AM,45.0,33.1,63,30.18,10.0,Calm,Calm,-,N/A,,Clear,0,2013-12-31 09:53:00
2:53 AM,45.0,32.0,60,30.17,10.0,Calm,Calm,-,N/A,,Clear,0,2013-12-31 10:53:00
3:53 AM,43.0,33.1,68,30.16,10.0,Calm,Calm,-,N/A,,Clear,0,2013-12-31 11:53:00
4:53 AM,43.0,33.1,68,30.16,10.0,Calm,Calm,-,N/A,,Clear,0,2013-12-31 12:53:00
5:53 AM,43.0,32.0,65,30.16,10.0,Calm,Calm,-,N/A,,Clear,0,2013-12-31 13:53:00
6:53 AM,41.0,32.0,70,30.17,10.0,Calm,Calm,-,N/A,,Clear,0,2013-12-31 14:53:00
7:53 AM,46.0,32.0,58,30.18,10.0,Calm,Calm,-,N/A,,Clear,0,2013-12-31 15:53:00
8:53 AM,53.1,28.0,38,30.19,10.0,Calm,Calm,-,N/A,,Clear,0,2013-12-31 16:53:00
9:53 AM,60.1,30.9,33,30.19,10.0,East,3.5,-,N/A,,Clear,100,2013-12-31 17:53:00
10:53 AM,64.0,30.9,29,30.18,9.0,Calm,Calm,-,N/A,,Clear,0,2013-12-31 18:53:00
11:53 AM,68.0,28.0,22,30.13,8.0,Calm,Calm,-,N/A,,Clear,0,2013-12-31 19:53:00
12:53 PM,70.0,27.0,20,30.10,7.0,Calm,Calm,-,N/A,,Clear,0,2013-12-31 20:53:00
1:53 PM,71.1,30.9,23,30.09,7.0,SW,4.6,-,N/A,,Clear,220,2013-12-31 21:53:00
2:53 PM,69.1,39.9,35,30.08,9.0,SSW,5.8,-,N/A,,Clear,210,2013-12-31 22:53:00
3:53 PM,66.0,46.9,50,30.08,10.0,SSW,4.6,-,N/A,,Clear,210,2013-12-31 23:53:00
4:53 PM,62.1,44.1,52,30.08,10.0,South,3.5,-,N/A,,Clear,190,2014-01-01 00:53:00
5:53 PM,60.1,48.0,64,30.09,10.0,Calm,Calm,-,N/A,,Clear,0,2014-01-01 01:53:00
6:53 PM,57.0,48.9,74,30.10,8.0,Calm,Calm,-,N/A,,Clear,0,2014-01-01 02:53:00
7:53 PM,53.1,46.9,80,30.11,9.0,Calm,Calm,-,N/A,,Clear,0,2014-01-01 03:53:00
8:53 PM,52.0,46.9,83,30.12,8.0,Calm,Calm,-,N/A,,Clear,0,2014-01-01 04:53:00
9:53 PM,51.1,46.0,83,30.12,6.0,Calm,Calm,-,N/A,,Haze,0,2014-01-01 05:53:00
10:53 PM,50.0,45.0,83,30.11,7.0,Calm,Calm,-,N/A,,Clear,0,2014-01-01 06:53:00
11:53 PM,48.0,43.0,83,30.11,7.0,Calm,Calm,-,N/A,,Unknown,0,2014-01-01 07:53:00